www.pogodaiklimat.ru

Погода и климат >> Архив погоды >> Россия >> Забайкальский край >> Чара


АРХИВ ПОГОДЫ в Чаре

Время (UTC), дата Ветер
(напр.,м/с)
 
Видим.   Явления Облачность Т
(С)
Тd
(С)
f
(%)
Тe
(С)
Тes
(С)
Комфортность P
(гПа)
Po
(гПа)
Тmin
(С)
Tmax
(С)
R
(мм)
R24
(мм)
S
(см)
18 17.08 Ю 1 50 км 9/8 1500 м
[Cb cap Ci fib]
+8.0 +6.7 91 +7 +7 1008.4 926.0
21 17.08 штиль 0 50 км 9/9 1500 м
[Cb cap]
+6.5 +5.4 93 +5 +5 1009.0 926.0
00 18.08 ЮВ 1 50 км 6/6 1500 м
[Cb cap]
+12.8 +9.6 81 +13 +15 1007.1 926.1 +6.5
03 18.08 ЮЗ 3 50 км 6/6 1500 м
[Cb cap]
+19.5 +8.4 49 +21 +24 комфорт 1003.8 924.8
06 18.08 СВ 2 50 км в посл. час ливневой дождь 8/8 1500 м
[Cb cap]
+21.6 +6.9 39 +22 +24 комфорт 1002.4 924.0
09 18.08 СВ 4 50 км {ливн. осадки} 8/8 1500 м
[Cb cap]
+17.6 +9.2 58 +17 +18 1004.6 925.1
12 18.08 штиль 0 50 км {ливн. осадки} 9/9 1500 м
[Cb cap]
+13.4 +11.5 88 +13 +13 1007.8 927.0 +22.8 0.3
15 18.08 В 1 50 км {ливн. осадки} 8/6 1500 м
[Cb cap Ci fib]
+11.8 +10.6 92 +12 +12 1008.9 927.5
18 18.08 Ю 1 50 км {ливн. осадки} 8/8 1500 м
[Cb cap]
+10.8 +9.8 94 +10 +10 1009.8 928.1
21 18.08 штиль 0 50 км местами туман поземный 8/8 1500 м
[Cb cap]
+9.1 +8.2 94 +8 +8 1010.7 928.4
00 19.08 В 1 50 км 10/8 1000 м
[Cb cap Ac trans]
+11.5 +10.5 94 +11 +12 1010.8 929.2 +9.0 0.3
03 19.08 В 2 50 км 8/8 1000 м
[Cb cap Ci fib]
+16.6 +9.7 64 +17 +19 1008.5 928.5
06 19.08 Ю 1 50 км {ливн. осадки} 9/8 1000 м
[Cb cap Ci fib]
+19.8 +7.2 44 +22 +24 комфорт 1006.8 927.6
09 19.08 ЮЗ 1 50 км 4/3 1500 м
[Cb calv Ci fib]
+20.0 +7.1 43 +22 +24 комфорт 1006.4 927.3
12 19.08 З 1 50 км 3/3 1500 м
[Sc Ci fib]
+12.4 +7.5 72 +13 +13 1009.4 928.1 +20.4 0.0
15 19.08 Ю 1 50 км в посл. час ливневой дождь 10/8 1000 м
[Cb cap Ci fib]
+10.5 +7.9 84 +10 +10 1010.9 929.0
18 19.08 ЮЗ 1 500 м туман {ливн. осадки} 6/3 1000 м
[Cb cap Ci fib]
+4.5 +3.4 93 +3 +3 1013.1 929.2
21 19.08 Ю 1 10 км дымка {туман} 4/0
[Ac lent Ci fib]
+3.1 +2.3 94 +1 +1 1013.8 929.4
00 20.08 штиль 0 8000 м дымка {туман} 9/0
[Ac trans Ci fib]
+7.5 +6.6 94 +6 +10 1012.5 929.6 +2.3 0.7
03 20.08 ЮЗ 1 50 км 10/8 1500 м
[Cb cap Ci fib]
+12.7 +9.0 78 +13 +15 1010.7 929.4
06 20.08 штиль 0 20 км слаб. ливневой дождь 10/8 1500 м
[Cb cap Ci fib]
+14.8 +9.4 70 +15 +16 1009.9 929.2
09 20.08 З 1 10 км слаб. ливневой дождь 10/8 1000 м
[Cb cap As op]
+12.9 +10.8 87 +13 +13 1011.6 930.3
12 20.08 штиль 0 10 км слаб. ливневой дождь 10/8 1000 м
[Cb cap As op]
+11.1 +9.8 92 +10 +10 1013.1 931.2 +15.2 7
15 20.08 Ю 1 10 км слаб. дождь 10/6 600 м
[Frnb As op]
+10.6 +9.6 94 +10 +10 1013.1 931.1
18 20.08 С 1 10 км слаб. дождь 10/8 600 м
[Frnb As op]
+10.0 +9.1 94 +9 +9 1013.2 931.0
21 20.08 штиль 0 10 км слаб. дождь 10/8 600 м
[Frnb As op]
+9.7 +8.8 94 +9 +9 1013.5 931.1
00 21.08 штиль 0 50 км {дождь} 10/10 600 м
[Frnb]
+10.9 +10.0 94 +10 +10 1013.6 931.6 +9.6 5
03 21.08 СВ 3 50 км 10/8 1000 м
[Cb cap As trans]
+14.1 +11.0 82 +13 +14 1012.4 931.4
06 21.08 Ю 2 50 км 10/8 1500 м
[Cb cap Cs]
+17.4 +10.6 64 +18 +19 1010.8 930.8
09 21.08 З 2 50 км {ливн. осадки} 10/6 1500 м
[Cb cap As trans]
+15.7 +10.7 72 +16 +16 1012.1 931.6
12 21.08 СЗ 1 50 км {ливн. осадки} 10/6 1500 м
[Cb cap Ac trans Cs]
+13.3 +11.4 88 +13 +13 1013.5 932.2 +18.3 0.0
15 21.08 Ю 1 50 км 10/8 1500 м
[Cb cap Ac As]
+12.0 +10.8 92 +12 +12 1014.1 932.4
18 21.08 СЗ 1 50 км {ливн. осадки} 9/6 1500 м
[Cb cap Ci fib]
+10.1 +9.1 94 +10 +10 1015.1 932.7
21 21.08 штиль 0 50 км {ливн. осадки} 10/5 1500 м
[Cb cap Ac trans Cs]
+9.1 +8.2 94 +8 +8 1015.9 933.1
00 22.08 ЮВ 1 50 км {ливн. осадки} 10/9 1000 м
[Cb cap Ci sp]
+12.6 +11.1 91 +13 +13 1015.3 933.7 +8.9 0.1
03 22.08 Ю 1 50 км 8/4 1000 м
[Cb cap Ac trans Ci fib]
+17.7 +10.9 64 +19 +24 1013.4 933.3
06 22.08 В 3 20 км слаб. ливневой дождь 10/9 1000 м
[Cb cap Ci sp]
+15.2 +11.7 80 +15 +15 1013.6 932.8
09 22.08 З 1 50 км {ливн. осадки} 9/9 1000 м
[Cb cap]
+16.7 +12.6 77 +18 +18 1013.5 933.1
12 22.08 С 2 50 км {ливн. осадки} 9/8 1000 м
[Cb cap Ac trans]
+14.6 +12.8 89 +14 +14 1014.9 933.9 +20.7 5
15 22.08 ЮЗ 1 50 км 6/3 1500 м
[Sc Ac lent Ci fib]
+10.5 +9.3 92 +10 +10 1016.8 934.4
18 22.08 ЮЗ 1 1000 м туман 4/0
[Ac lent Ci fib]
+6.3 +5.4 94 +5 +5 1018.5 934.7
21 22.08 С 1 800 м туман 4/0
[Ac lent Ci fib]
+2.8 +2.0 94 +1 +1 1020.1 935.1
00 23.08 штиль 0 50 км {туман} 3/0
[Ci fib]
+10.1 +9.1 94 +9 +14 1017.9 935.3 +2.7
03 23.08 Ю 1 50 км 3/3 1500 м
[Cb calv]
+18.6 +9.7 56 +20 +28 1013.5 933.6
06 23.08 ЮЗ 1 50 км 6/4 1500 м
[Cb cap Ci fib]
+23.3 +6.2 33 +24 +29 комфорт 1009.7 931.1
09 23.08 В 1 50 км 6/3 1500 м
[Cb cap Ci fib]
+23.5 +5.8 32 +24 +25 комфорт 1008.4 930.0
12 23.08 СВ 1 50 км 4/3 1500 м
[Cb cap Ci fib]
+13.6 +9.8 78 +14 +14 1011.6 930.5 +24.8
15 23.08 З 1 50 км 3/0
[Ci fib]
+7.0 +5.8 92 +6 +6 1014.3 931.0
18 23.08 штиль 0 50 км 4/0
[Ci fib]
+4.5 +3.5 93 +3 +3 1015.4 931.3
21 23.08 З 1 50 км 8/0
[Ac trans Ci fib]
+2.1 +1.3 94 0 0 1016.1 931.2
00 24.08 штиль 0 50 км 8/3 1500 м
[Sc Ci fib]
+10.4 +7.8 84 +10 +13 1013.1 931.0 +1.9
03 24.08 В 1 50 км 6/3 1500 м
[Cu med, cong Ac lent Ci fib]
+20.0 +5.9 40 +22 +28 комфорт 1008.8 929.6
06 24.08 СЗ 1 50 км 6/4 1500 м
[Cu med, cong Ci fib]
+26.2 +6.4 28 +26 +31 жарко 1004.6 927.2
09 24.08 ЮЗ 4 50 км 4/3 1500 м
[Cb cap Ci fib]
+26.1 +3.8 24 +25 +26 комфорт 1003.7 926.3
12 24.08 З 1 50 км 3/3 1500 м
[Sc Ci fib]
+17.0 +7.0 52 +18 +18 1006.7 926.8 +27.1

 

Местоположение метеостанции Чара (Забайкальский край, Россия): широта 56.90 долгота 118.20 высота над уровнем моря 711 м.

В архиве по умолчанию представлена погода в Чаре за последнюю неделю. Архивные данные за месяц целиком и за предыдущие месяцы, начиная с января 2011 года, Вы можете получить, выбрав интересующий диапазон дат из раскрывающегося списка и нажав кнопку "Ввод!".


*Определитесь, кто Вы:
робот инопланетянин человек

Внимание! Время в таблицах - всемирное. Для получения местного времени необходимо прибавить поправку, которая равна 9 ч.

Смотрите также архив погоды в соседних городах и на ближайших метеорологических станциях:

Погода в Удокане (Забайкальский край, Россия) (18 км)
Погода в Большой Лепринде (Забайкальский край, Россия) (46 км)
Погода в Усть-Нюкже (Амурская область, Россия) (204 км)
Погода в Таксимо (Бурятия, Россия) (216 км)
Погода в Средней Олекме (Забайкальский край, Россия) (217 км)
Погода в Перевозе (Иркутская область, Россия) (246 км)
Погода в Тяне (Якутия, Россия) (252 км)
Погода в Мамакане (Иркутская область, Россия) (272 км)
Погода в Усть-Каренге (Забайкальский край, Россия) (295 км)
Погода в Тупике (Забайкальский край, Россия) (295 км)

Пояснения к столбцам:

Ветер - указаны скорость ветра в м/с - средняя за 10 мин, порывы в срок и между сроками (в фигурных скобках) и направление, откуда дует ветер: С - северный, СВ - северо-восточный, В - восточный, ЮВ - юго-восточный, Ю - южный, ЮЗ - юго-западный, З - западный, СЗ - северо-западный.
Видимость - горизонтальная дальность видимости в метрах или километрах. При видимости от 1 до 10 км при отсутствии осадков обычно наблюдается дымка, при ухудшении видимости до 1 км и менее - туман. В сухую погоду видимость может ухудшаться дымом, пылью или мглою.
Явления - указаны атмосферные явления, наблюдавшиеся в срок или в последний час перед сроком; фигурными скобками обозначены явления, наблюдавшиеся между сроками (за 1-3 часа до срока); квадратными скобками обозначены град или гололедные отложения с указанием их диаметра в мм.
Облачность - указаны через наклонную черту общая и нижняя облачность в баллах и высота нижней границы облаков в метрах; квадратными скобками обозначены формы облаков: Ci - перистые, Cs - перисто-слоистые, Cc - перисто-кучевые, Ac - высококучевые, As - высокослоистые, Sc - слоисто-кучевые, Ns - слоисто-дождевые, Cu - кучевые, Cb - кучево-дождевые. Подробнее классификацию облаков см. в Атласе облаков (PDF).
T - Температура воздуха - температура, измеренная на высоте 2 м над землей.
Td - Температура точки росы - температура, при понижении до которой содержащийся в воздухе водяной пар достигнет насыщения.
f - Относительная влажность воздуха - влажноcть воздуха, измеренная на высоте 2 м над землей.
Te - Эффективная температура - температура, которую ощущает одетый по сезону человек в тени. Характеристика душности погоды. При расчете учитывается влияние влажности воздуха и скорости ветра на теплоощущения человека.
Tes - Эффективная температура на солнце - температура, которую ощущает человек, с поправкой на солнечный нагрев. Характеристика знойности погоды. Зависит от высоты солнца над горизонтом, облачности и скорости ветра. Ночью, в пасмурную погоду, а также при ветре 12 м/с и более поправка равна нулю.
P - Атмосферное давление - приведенное к уровню моря атмосферное давление.
Po - Атмосферное давление - измеренное на уровне метеостанции атмосферное давление.
Tmin - Минимальная температура - минимум температуры воздуха на высоте 2 м над землей.
Tmax - Максимальная температура - максимум температуры воздуха на высоте 2 м над землей.
R - Количество осадков - Количество выпавших осадков за период времени, мм. При наведении курсора мыши на число - период времени, за который выпало указанное количество осадков.
R24 - Количество осадков - Количество выпавших осадков за 24 часа, мм.
S - Снежный покров - Высота снежного покрова, см. При наведении курсора мыши на число - состояние снежного покрова и степень покрытия местности в баллах.